Location: Montclair
(37.8322°N, 122.2092°W)
Time: 20:30:57
(UTC+00:00)

Cosmos 1867 - Visible Passes

Search period start: 05 December 2024 00:00
Search period end: 15 December 2024 00:00
Orbit: 773 x 801 km, 65.0° (Epoch: 05 December)

Date Brightness Start Highest point End Pass type
(mag) Time Alt. Az. Time Alt. Az. Time Alt. Az.
05 Dec 5.2 13:53:46 10° S 13:58:44 38° ESE 14:03:44 10° NE visible
06 Dec 5.8 13:22:25 10° SSE 13:26:54 27° ESE 13:31:25 10° NE visible
07 Dec 6.2 12:51:24 10° SSE 12:55:08 19° ESE 12:58:51 10° ENE visible
07 Dec 3.7 14:32:52 10° SW 14:38:12 56° WNW 14:43:37 10° NNE visible
08 Dec 6.6 12:20:58 10° SE 12:23:22 13° ESE 12:25:47 10° ENE visible
08 Dec 3.5 14:00:47 10° SW 14:06:13 77° WNW 14:11:43 10° NNE visible
09 Dec 3.7 13:28:51 10° SSW 13:34:16 77° ESE 13:39:45 10° NNE visible
10 Dec 4.2 12:57:04 10° SSW 13:02:21 55° ESE 13:07:42 10° NE visible
10 Dec 4.7 14:41:59 10° W 14:46:16 23° NW 14:50:34 10° N visible
11 Dec 4.8 12:27:47 23° SSE 12:30:29 39° ESE 12:35:32 10° NE visible
11 Dec 4.4 14:09:22 10° WSW 14:14:07 30° NW 14:18:55 10° N visible
12 Dec 5.4 11:59:17 27° E 11:59:17 27° E 12:03:14 10° NE visible
12 Dec 4.0 13:40:04 30° W 13:42:02 40° NW 13:47:11 10° NNE visible
13 Dec 6.3 11:29:53 13° ENE 11:29:53 13° ENE 11:30:42 10° ENE visible
13 Dec 3.8 13:10:37 51° NNW 13:10:37 51° NNW 13:15:22 10° NNE visible
14 Dec 4.9 12:40:42 31° NNE 12:40:42 31° NNE 12:43:29 10° NNE visible
14 Dec 5.3 14:21:25 13° NW 14:22:30 13° NW 14:25:05 10° N visible
